Location: Antilly
(49.1527°N, 2.9838°E)
Time: 07:27:45
(UTC+00:00)

Daily predictions for brighter satellites

Satellite Brightness Start Highest point End
(mag) Time Altitude Azimuth Time Altitude Azimuth Time Altitude Azimuth
Cosmos 1602 4.2 16:25:01 10° NNW 16:28:53 68° W 16:32:45 10° S
RESURS DK-1 2.6 16:28:27 10° SSW 16:32:29 55° ESE 16:36:32 10° NE
Cosmos 921 Rocket 4.5 16:31:48 10° NNE 16:34:35 17° NE 16:37:22 10° E
NOSS 0 Rocket 4.5 16:29:53 10° S 16:35:38 41° ESE 16:41:25 10° NE
H-2A R/B 3.3 16:33:13 10° SE 16:36:34 34° ENE 16:39:57 10° N
Cosmos 1689 Rocket 2.2 16:34:14 10° N 16:37:17 80° WNW 16:40:18 10° SSW
COSMOS 2428 2.7 16:40:08 10° SSW 16:45:49 84° ESE 16:51:33 10° NNE
Feng Yun 1-1 Rocket 4.2 16:40:40 10° SSE 16:45:57 61° ENE 16:51:18 10° N
Meteor 1-5 Rocket 4.1 16:44:12 10° N 16:49:48 81° ENE 16:55:11 10° SSE
Cosmos 1536 3.2 16:47:02 10° N 16:50:52 41° ENE 16:54:40 10° SE
Cosmos 1862 Rocket 3.8 16:49:40 10° SSE 16:53:52 50° E 16:58:08 10° NNE
Genesis I 3.9 16:50:45 10° NNW 16:54:21 34° NE 16:57:54 10° ESE
ATLAS 2AS CENTAUR R/B 3.6 16:48:10 10° WSW 16:56:02 55° NW 17:03:50 10° NE
Okean O Rocket 3.0 16:55:04 10° S 16:59:12 43° W 17:03:22 10° NNW
Cosmos 1666 3.2 16:57:51 10° N 17:01:18 34° ENE 17:04:43 10° SE
CZ-4B R/B 4.4 16:56:37 10° S 17:01:43 46° W 17:06:57 10° NNW
STARLINK-67 3.4 16:59:07 10° W 17:01:45 38° N 17:03:16 20° NE
Lacrosse 5 rocket 1.3 16:58:49 10° SW 17:03:07 79° SE 17:06:10 17° ENE
SeaSat 1 4.2 17:02:16 12° NE 17:03:08 13° NNE 17:05:12 10° N
Cosmos 1092 Rocket 4.4 16:57:22 10° SSE 17:03:09 40° E 17:08:55 10° NNE
Cosmos 2242 Rocket 4.0 17:01:32 10° SSE 17:05:51 43° E 17:10:12 10° NNE
Cosmos 1707 Rocket 4.4 17:05:06 10° SSW 17:09:27 53° WNW 17:13:53 10° N
SL-4 R/B 1.9 17:06:51 10° W 17:10:35 75° NNW 17:13:11 21° ENE
Aureole 1 Rocket 3.5 17:08:40 10° SSE 17:11:01 21° ESE 17:11:22 21° E
Cosmos 2278 Rocket 2.5 17:05:55 10° NNW 17:11:35 71° WSW 17:17:11 10° SSE
CZ-4 R/B 2.2 17:09:12 10° ESE 17:12:26 26° ENE 17:15:41 10° N
Shenzhou-11 Module 4.0 17:13:02 10° WSW 17:15:09 20° S 17:17:15 10° SE
FengYun 1-2 T 4.5 17:10:10 10° SE 17:15:21 45° ENE 17:20:35 10° N
STARLINK-46 2.6 17:14:00 10° WSW 17:16:38 61° NNW 17:17:37 32° NE
Cosmos 2360 Rocket 3.9 17:11:54 10° WSW 17:16:42 27° NW 17:21:31 10° NNE
Okean-O 2.6 17:12:52 10° SSE 17:17:14 62° ENE 17:21:38 10° N
SMAP 3.3 17:14:42 10° S 17:19:22 75° WSW 17:24:03 10° NNW
NOAA 12 4.0 17:16:26 10° SSE 17:21:43 75° ENE 17:27:01 10° NNW
PSLV R/B 4.3 17:19:05 10° N 17:23:13 65° WNW 17:27:18 10° SSW
USA 215 3.3 17:17:57 17° NE 17:23:14 77° NNW 17:29:46 10° WSW
Cosmos 2369 Rocket 3.3 17:19:50 10° N 17:24:15 23° NE 17:25:28 21° ENE
Cosmos 1743 3.5 17:23:30 10° N 17:26:56 30° ENE 17:30:22 10° SE
Cosmos 1908 Rocket 3.4 17:22:47 10° N 17:27:12 70° ENE 17:31:33 10° SSE
ISS -1.4 17:25:12 10° W 17:27:57 24° SW 17:30:42 10° SSE
SL-16 R/B 3.0 17:23:45 10° SSE 17:28:41 32° ESE 17:30:56 24° ENE
YAOGAN 3 4.5 17:26:57 10° SSE 17:31:18 84° ENE 17:35:42 10° NNW
COSMO-SKYMED 1 3.1 17:29:39 23° NE 17:31:45 37° E 17:35:48 10° SSE
NOSS 5 (C) 4.5 17:29:13 10° NW 17:32:27 85° SW 17:36:34 10° SE
Cosmos 2251 Rocket 3.6 17:27:21 10° SSW 17:32:40 78° WNW 17:37:46 11° NNE
Cosmos 2333 Rocket 3.2 17:32:02 10° SW 17:37:31 44° NW 17:43:03 10° NNE
STARLINK-60 3.6 17:35:06 10° SW 17:38:20 44° SE 17:38:58 39° ESE
Cosmos 2237 Rocket 2.2 17:33:18 10° SSW 17:39:00 88° ESE 17:43:32 17° NNE
Cosmos 1812 3.7 17:36:29 10° SSW 17:40:14 48° WNW 17:44:01 10° N
YAOGAN 1 2.9 17:36:16 10° SE 17:40:20 42° ENE 17:44:26 10° N
Nadezhda 4 Rocket 4.2 17:34:08 10° SSW 17:40:28 78° W 17:46:49 10° N
Cosmos 292 Rocket 3.9 17:38:46 10° NNW 17:43:39 77° WSW 17:48:29 10° SSE
Envisat 3.0 17:38:50 10° SSE 17:43:55 85° WSW 17:49:03 10° NNW
Cosmos 2322 Rocket 4.5 17:41:33 10° WNW 17:44:20 14° NNW 17:47:08 10° N
Okean 1-7 3.1 17:40:26 10° S 17:44:39 52° E 17:46:42 28° NNE
YAOGAN 6 2.4 17:41:11 10° SSE 17:44:42 69° ENE 17:48:17 10° N
Cosmos 1553 Rocket 4.2 17:40:04 10° N 17:46:12 47° ENE 17:52:20 10° SSE
COBE Rocket 4.2 17:41:52 10° N 17:46:28 63° WNW 17:51:05 10° SSW
Cosmos 1140 Rocket 4.3 17:46:23 10° SSE 17:50:28 30° ESE 17:50:28 30° ESE
Cosmos 2219 Rocket 3.5 17:46:49 10° WSW 17:51:58 36° NW 17:57:01 11° NNE
Cosmos 407 Rocket 3.8 17:48:53 10° S 17:53:48 45° ESE 17:55:06 38° ENE
SKYMED 3 4.5 17:54:05 32° NNE 17:56:00 65° E 18:00:19 10° S
CZ-4 R/B 4.3 17:52:42 10° SSE 17:56:53 83° ENE 18:01:04 10° NNW
NOSS 3-1 (C) 4.4 17:50:13 10° NW 17:56:54 42° NNE 17:59:49 31° ENE
Cosmos 489 Rocket 4.5 17:56:01 10° NNW 18:02:19 59° ENE 18:08:07 12° SE
Cosmos 2026 Rocket 3.8 17:56:26 10° S 18:02:29 75° E 18:08:33 10° NNE
Cosmos 1943 Rocket 2.5 17:57:16 10° NNW 18:02:38 41° NE 18:03:08 41° ENE
USA 229 DEB 4.2 17:58:54 10° NW 18:05:41 44° NNE 18:07:49 36° ENE
USA 229 4.2 17:58:59 10° NW 18:05:46 44° NNE 18:07:53 36° ENE
Cosmos 1867 3.5 18:03:20 10° NW 18:08:48 70° NE 18:10:41 41° ESE
BREEZE-M R/B 2.4 18:04:14 10° W 18:09:04 88° W 18:09:04 88° W
Cosmos 1980 4.3 18:04:40 10° SW 18:10:12 55° NW 18:14:04 20° NNE
RESURS DK-1 4.5 18:07:35 10° W 18:10:50 22° NW 18:13:07 15° N
NOSS 3-1 (A) 4.5 18:04:20 10° NW 18:10:52 38° NNE 18:12:35 34° NE
Cosmos 1441 Rocket 3.8 18:08:05 10° NNW 18:11:52 54° W 18:15:32 10° S
CSL-04 Rocket 3.5 18:06:50 10° SSE 18:12:06 83° ENE 18:17:26 10° NNW
Cosmos 921 Rocket 3.2 18:09:05 10° NNW 18:13:20 68° WSW 18:17:38 10° S
Cosmos 2297 3.9 18:09:52 10° NNW 18:15:34 70° WSW 18:21:11 10° SSE
Cosmos 1417 Rocket 4.3 18:11:23 10° N 18:17:32 73° E 18:23:39 10° SSE
SKYMED 2 3.7 18:18:20 37° N 18:20:00 74° WNW 18:24:20 10° SSW
Cosmos 1782 Rocket 4.1 18:17:32 10° NNW 18:21:50 57° W 18:26:04 10° S
Sich 1 Rocket 3.7 18:19:06 10° NNW 18:23:31 72° W 18:27:53 10° S
Ariane Rocket 4.1 18:29:22 30° N 18:29:22 30° N 18:31:59 10° N
FALCON 9 DEB 4.4 18:24:05 10° WSW 18:26:23 39° SW 18:26:23 39° SW
CSL-04 Debris 4.3 18:23:06 10° S 18:28:34 74° WSW 18:34:01 10° NNW
Meteor 1-18 Rocket 4.1 18:23:48 10° S 18:29:32 86° E 18:31:59 36° NNE
Cosmos 1655 Rocket 3.9 18:29:37 10° S 18:35:51 68° E 18:37:02 56° NE
SeaSat 1 3.9 18:42:03 26° N 18:42:03 26° N 18:44:20 10° NNW
Lacrosse 5 rocket 2.8 18:38:47 10° W 18:41:49 31° NW 18:41:49 31° NW
Meteor 2-9 Rocket 4.3 18:39:02 10° NNW 18:44:56 83° W 18:50:44 10° S
Cosmos 1190 Rocket 4.0 18:41:59 10° SSW 18:47:08 78° WNW 18:47:08 78° WNW
CZ-4 R/B 3.1 18:43:56 10° SSW 18:47:24 30° W 18:50:52 10° NNW
ATLAS 2AS CENTAUR R/B 4.2 18:41:54 10° WNW 18:48:47 30° NNW 18:51:24 25° NNE
SL-4 R/B 3.6 18:46:35 10° WNW 18:48:47 32° WNW 18:48:47 32° WNW
USA 215 3.7 19:05:18 46° N 19:05:51 47° N 19:12:04 10° W
COSMO-SKYMED 1 4.5 19:06:52 25° NW 19:07:47 27° WNW 19:11:25 10° WSW
Cosmos 2369 Rocket 2.9 19:03:20 10° NNW 19:07:18 47° NNW 19:07:18 47° NNW
SL-16 R/B 2.9 19:07:03 10° SW 19:12:35 50° NW 19:12:51 50° NW
Cosmos 2237 Rocket 4.1 19:19:25 10° W 19:23:50 22° NW 19:25:23 20° NNW
Cosmos 2344 4.2 19:29:29 10° NW 19:39:00 89° NE 19:40:45 70° SE
Cosmos 1943 Rocket 3.7 19:41:09 10° NW 19:44:42 32° WNW 19:44:42 32° WNW
NOSS 3-1 (C) 4.3 19:41:01 10° NW 19:47:15 65° WNW 19:47:15 65° WNW
USA 229 DEB 4.5 19:49:54 10° NW 19:55:17 51° WNW 19:55:17 51° WNW
USA 229 4.5 19:50:01 10° NW 19:55:20 50° WNW 19:55:20 50° WNW
